Location: Hambrücken
(49.1862°N, 8.5437°E)
Time: 22:39:18
(UTC+00:00)

Daily predictions for brighter satellites

Satellite Brightness Start Highest point End
(mag) Time Altitude Azimuth Time Altitude Azimuth Time Altitude Azimuth
Sich 1 Rocket 3.8 17:10:48 10° N 17:15:17 54° ENE 17:19:44 10° SSE
ATLAS 2AS CENTAUR R/B 4.0 17:10:23 10° W 17:16:22 30° NNW 17:22:16 10° NE
GP-B 3.1 17:12:18 10° S 17:16:39 88° E 17:21:03 10° N
Cosmos 2123 Rocket 4.3 17:11:47 10° SSW 17:18:06 76° W 17:24:26 10° N
SKYMED 2 3.9 17:14:46 10° NNE 17:18:59 47° E 17:23:11 10° S
Resurs 1-3 3.7 17:16:07 10° SE 17:20:16 50° ENE 17:24:26 10° N
IRS-1C 4.5 17:17:10 10° S 17:22:29 75° WSW 17:27:50 10° NNW
Lacrosse 5 rocket 2.3 17:20:53 10° W 17:24:02 31° NNW 17:27:17 10° NE
Resurs 01 Rocket 2.4 17:24:05 10° SE 17:27:53 29° ENE 17:31:42 10° N
Cosmos 1782 4.1 17:29:36 10° NNE 17:31:59 17° ENE 17:34:22 10° ESE
CZ-4 R/B 4.4 17:28:52 10° SSE 17:32:50 89° W 17:36:50 10° NNW
Cosmos 1674 Rocket 3.7 17:29:35 10° SSW 17:33:59 79° W 17:38:26 10° N
SPOT 1/Viking Rocket 3.7 17:28:52 10° S 17:33:59 79° WSW 17:39:09 10° NNW
USA 267 3.4 17:31:15 10° NE 17:37:50 83° NNW 17:44:23 10° WSW
CARTOSAT-1 3.8 17:34:20 10° SE 17:38:19 44° ENE 17:42:20 10° N
Radarsat Rocket 4.0 17:35:43 10° SSE 17:41:32 68° ENE 17:47:56 10° NNW
ARIANE 6 FM1 Upper Stage 3.7 17:39:39 10° NNW 17:43:03 26° NNE 17:45:29 15° E
SL-19 R/B 4.5 17:37:55 10° SE 17:43:53 58° ENE 17:49:37 10° N
Cosmos 2297 Rocket 2.2 17:41:06 10° SSW 17:46:43 70° ESE 17:52:22 10° NNE
Cosmos 1447 Rocket 4.4 17:42:01 10° S 17:48:06 75° E 17:54:16 10° NNE
RESURS DK-1 4.5 17:48:04 10° NNE 17:48:47 10° NE 17:49:28 10° NE
SPOT 5 4.1 17:52:21 14° ESE 17:55:19 24° ENE 17:59:20 10° N
SeaSat 1 3.3 17:52:17 10° SSE 17:57:04 54° WSW 18:01:53 10° NW
SJ-6B 3.1 17:55:06 10° SE 17:58:12 33° ENE 18:01:21 10° N
IRAS Rocket 4.4 17:53:19 10° SE 17:58:42 50° ENE 18:04:07 10° N
Tiangong 0.0 17:56:29 10° SW 17:58:44 18° S 18:00:16 13° SE
PSLV R/B 3.3 17:58:56 10° SSE 18:03:02 81° ENE 18:07:09 10° NNW
Cosmos 2228 3.1 18:00:08 10° N 18:04:14 50° ENE 18:08:19 10° SSE
COSMO-SKYMED 1 2.3 18:00:46 10° NNE 18:04:54 81° ESE 18:09:00 10° SSW
Meteor 1-31 Rocket 3.9 18:06:27 20° NE 18:06:27 20° NE 18:08:31 10° NNE
NOSS 3-3 (C) 4.1 18:00:43 10° SW 18:06:00 65° NW 18:12:26 10° NE
Cosmos 1544 Rocket 4.3 18:03:06 10° N 18:06:55 29° ENE 18:08:59 20° ESE
Cosmos 1570 Rocket 3.9 18:02:09 10° SSW 18:07:25 81° ESE 18:12:41 10° NNE
CZ-2D R/B 3.8 18:04:01 10° S 18:07:55 65° W 18:11:56 10° NNW
YAOGAN 3 4.4 18:04:10 10° SSE 18:08:22 74° ENE 18:12:35 10° N
Cosmos 2344 4.0 18:02:19 10° S 18:09:25 37° ESE 18:14:28 16° ENE
Cosmos 1513 Rocket 4.5 18:05:29 10° N 18:11:49 86° E 18:18:11 10° S
Cosmos 1455 Rocket 3.1 18:07:39 10° NNW 18:11:58 78° W 18:16:15 10° S
YAOGAN 1 3.4 18:07:57 10° S 18:12:06 52° W 18:16:18 10° NNW
Cosmos 2263 Rocket 2.9 18:08:33 10° SSE 18:13:30 32° ESE 18:16:41 19° ENE
Cosmos 1975 Rocket 3.0 18:10:23 10° S 18:14:38 55° E 18:18:51 10° NNE
Cosmos 2034 Rocket 4.2 18:09:52 10° N 18:15:49 46° ENE 18:21:45 10° SSE
USA 234 4.4 18:09:41 10° SSE 18:15:50 43° SW 18:22:02 10° WNW
DMSP B5D1-3 4.5 18:11:00 10° NNE 18:16:05 62° ESE 18:21:08 10° S
Cosmos 1072 Rocket 4.4 18:10:35 10° N 18:16:50 73° E 18:22:58 10° SSE
Cosmos 2237 Rocket 3.0 18:15:19 10° NW 18:20:49 53° WSW 18:26:19 10° S
Cosmos 773 Rocket 3.9 18:18:35 10° SSW 18:23:51 86° ESE 18:29:11 10° NNE
NOAA 6 4.3 18:19:44 10° S 18:24:52 70° WSW 18:30:03 10° NNW
DNEPR-1 R/B 4.0 18:20:23 10° NW 18:25:15 87° SW 18:30:45 12° SE
Cosmos 2208 Rocket 4.0 18:24:33 10° SSW 18:29:48 89° ESE 18:35:11 10° NNE
Terra 3.5 18:31:23 17° NE 18:31:23 17° NE 18:33:21 10° NNE
CRYOSAT 2 4.5 18:28:54 10° N 18:33:48 79° W 18:38:40 10° SSW
Meteor 2-17 Rocket 4.4 18:30:00 10° S 18:36:03 87° W 18:42:09 10° N
Cosmos 1346 Rocket 2.4 18:35:04 10° S 18:38:40 72° E 18:40:09 33° NNE
Cosmos 44 Rocket 3.4 18:34:09 10° SW 18:39:06 79° NW 18:42:35 21° NE
TSX-5 4.2 18:36:01 10° NNW 18:41:12 58° NE 18:42:13 46° ESE
Cosmos 1602 3.7 18:39:38 10° SSW 18:42:20 50° WNW 18:43:15 33° NNW
Cosmos 1464 Rocket 4.1 18:36:32 10° N 18:42:55 81° W 18:49:13 10° S
CZ-4C R/B 3.5 18:39:53 10° W 18:44:05 31° NNW 18:48:40 13° NNE
Cosmos 2227 Rocket 2.1 18:40:29 10° SSW 18:46:07 86° ESE 18:51:30 12° NNE
SL-16 R/B 2.1 18:41:55 10° NNW 18:47:37 81° ENE 18:50:49 27° SE
Helios 1A Rocket 4.0 18:49:53 23° S 18:49:53 23° S 18:51:16 10° SSW
NOSS 3-4 (C) 4.5 18:45:14 10° NW 18:51:53 55° WSW 18:59:37 10° SSE
CZ-4 R/B 2.7 19:02:50 26° N 19:02:50 26° N 19:04:38 10° N
Lacrosse 5 rocket 2.8 18:58:42 10° NW 19:01:16 23° N 19:01:16 23° N
Resurs 01 Rocket 3.2 19:00:09 10° SSW 19:04:09 34° W 19:08:12 10° NNW
Cosmos 1782 3.9 19:03:32 10° NNW 19:06:54 39° W 19:09:32 15° SSW
BREEZE-M DEB (TANK) 4.1 19:02:57 10° SW 19:07:21 53° SE 19:11:13 36° E
ATLAS 2AS CENTAUR R/B 4.1 19:03:58 10° NW 19:09:24 24° N 19:11:46 20° NE
CZ-4B R/B 3.4 19:12:00 49° NE 19:12:00 49° NE 19:16:26 10° N
Gbstr 26 Del rocket 4.3 19:06:32 10° SW 19:13:22 62° SSE 19:15:03 50° E
CSL-04 Debris 4.1 19:12:12 35° SSE 19:14:35 87° WSW 19:20:03 10° NNW
CZ-4B DEB 4.0 19:14:53 59° SE 19:15:58 80° ENE 19:21:27 10° NNW
ERS-1 Rocket 3.7 19:20:01 40° NNE 19:20:01 40° NNE 19:23:24 10° N
CSL-04 Rocket 3.7 19:17:14 31° S 19:19:49 74° WSW 19:25:06 10° NNW
USA 267 3.9 19:17:48 32° NE 19:20:30 48° N 19:26:43 10° W
ARIANE 6 FM1 Upper Stage 3.4 19:18:26 10° NW 19:21:31 48° WNW 19:21:31 48° WNW
RESURS DK-1 4.2 19:23:12 10° NNW 19:24:45 22° NNW 19:24:45 22° NNW
Cosmos 2297 Rocket 4.1 19:26:32 10° W 19:31:17 27° NW 19:36:02 10° NNE
SPOT 5 3.4 19:31:23 41° SSW 19:32:50 57° W 19:37:53 10° NNW
Cosmos 1943 3.3 19:28:40 10° NNW 19:33:43 65° N 19:33:43 65° N
Okean O Rocket 4.1 19:39:04 12° N 19:39:04 12° N 19:39:27 10° N
Tsikada Rocket 3.9 19:29:16 10° S 19:35:25 83° W 19:41:39 10° N
Gblst 52 Del rocket 4.4 19:30:29 10° WNW 19:37:50 85° NNE 19:38:18 78° E
MOS 1 4.2 19:38:44 81° N 19:38:44 81° N 19:44:08 10° NNW
Cosmos 2219 3.8 19:41:28 10° SSW 19:45:34 49° SSW 19:45:34 49° SSW
ADEOS 4.3 19:53:50 50° NW 19:53:50 50° NW 19:57:42 10° NNW
Cosmos 2263 Rocket 2.9 19:51:40 10° SW 19:57:11 50° NW 19:58:28 42° NNW
Terra 3.8 20:10:00 23° NNW 20:10:00 23° NNW 20:11:46 10° NNW
Cosmos 2344 3.8 20:15:59 10° WSW 20:23:24 58° NW 20:24:32 52° N
Cosmos 2227 Rocket 4.3 20:26:30 10° W 20:30:54 23° NW 20:33:22 17° N
SL-16 R/B 4.4 20:27:15 10° WNW 20:31:01 18° W 20:32:45 16° WSW
CZ-4C R/B 4.3 20:30:01 10° NW 20:33:37 21° N 20:33:37 21° N
ATLAS 2AS CENTAUR R/B 4.2 20:55:41 10° NW 20:59:11 28° NNW 20:59:11 28° NNW
